Sioux Falls, SD

12:38 AM CDT on October 16, 2019 (GMT -0500)
Foss

Weather History for KFSD - August, 2019

Change the Weather History Date:

Saturday, August 31, 2019

  Actual Average Record
Temperature  
Mean Temperature 62 °F 68 °F  
Max Temperature 66 °F 79 °F 97 °F (1898)
Min Temperature 59 °F 56 °F 37 °F (1895)
Degree Days  
Heating Degree Days 2 2  
Month to date heating degree days 5 21  
Since 1 June heating degree days 25 82  
Since 1 July heating degree days 5 31  
Cooling Degree Days 0 4  
Month to date cooling degree days 178 198  
Year to date cooling degree days 706 625  
Since 1 June cooling degree days 691 589  
Growing Degree Days 12 (Base 50)    
Moisture  
Dew Point 56 °F    
Average Humidity 83    
Maximum Humidity 90    
Minimum Humidity 73    
Precipitation  
Precipitation 0.11 in 0.10 in 3.99 in (1982)
Month to date precipitation 2.65 3.05  
Year to date precipitation 29.84 19.39  
Snow  
Snow 0.00 in 0.00 in 0.00 in ()
Month to date snowfall T 0.0  
Since 1 June snowfall T 0.0  
Since 1 July snowfall T 0.0  
Snow Depth 0.00 in    
Sea Level Pressure  
Sea Level Pressure 30.20 in    
Wind  
Wind Speed 8 mph ()    
Max Wind Speed 18 mph    
Max Gust Speed 24 mph    
Visibility 9.6 miles    
Events Rain    
T = Trace of Precipitation, MM = Missing Value Source: Averaged Metar Reports

Daily Weather History Graph

Daily Weather History Graph

Search for Another Location

Airport or City:

Astronomy

Aug. 31, 2019 Rise Set
Actual Time 6:49 AM CDT 8:04 PM CDT
Civil Twilight 6:19 AM CDT 8:33 PM CDT
Nautical Twilight 5:44 AM CDT 9:09 PM CDT
Astronomical Twilight 5:06 AM CDT 9:46 PM CDT
Moon 8:07 AM CDT (8/31) 9:15 PM CDT (8/31)
Length of Visible Light 14h 14m
Length of Day
13h 15m
New Moon, 3% of the Moon is Illuminated
Aug 31
New Moon
Sep 5
First Quarter
Sep 13
Full
Sep 21
Last Quarter
Sep 28
New

Hourly Weather History & Observations

Time (CDT) Temp. Dew Point Humidity Pressure Visibility Wind Dir Wind Speed Gust Speed Precip Events Conditions
12:56 AM 61.0 °F 57.0 °F 87% 30.23 in 10.0 mi East 6.9 mph - 0.00 in   Overcast
1:56 AM 62.1 °F 55.0 °F 78% 30.23 in 10.0 mi SE 10.4 mph - N/A   Overcast
2:56 AM 61.0 °F 55.9 °F 83% 30.22 in 10.0 mi East 5.8 mph - N/A   Overcast
3:56 AM 60.1 °F 55.0 °F 83% 30.20 in 10.0 mi East 8.1 mph - N/A   Overcast
4:56 AM 61.0 °F 54.0 °F 78% 30.20 in 10.0 mi SE 8.1 mph - N/A   Overcast
5:56 AM 60.1 °F 54.0 °F 80% 30.20 in 10.0 mi East 5.8 mph - N/A   Overcast
6:56 AM 60.1 °F 54.0 °F 80% 30.22 in 9.0 mi ESE 6.9 mph - 0.02 in Rain Light Rain
7:56 AM 59.0 °F 54.0 °F 83% 30.24 in 10.0 mi SE 6.9 mph - 0.04 in Rain Light Rain
8:56 AM 59.0 °F 55.0 °F 87% 30.25 in 10.0 mi SE 10.4 mph - 0.04 in Rain Light Rain
9:56 AM 59.0 °F 55.0 °F 87% 30.24 in 10.0 mi SSE 11.5 mph - 0.00 in Rain Light Rain
10:56 AM 60.1 °F 57.0 °F 90% 30.24 in 10.0 mi ESE 8.1 mph - 0.01 in Rain Light Rain
11:26 AM 61.0 °F 57.9 °F 90% 30.23 in 10.0 mi SE 10.4 mph - 0.00 in   Overcast
11:36 AM 62.1 °F 57.9 °F 86% 30.23 in 10.0 mi SE 9.2 mph - 0.00 in   Overcast
11:56 AM 62.1 °F 57.0 °F 84% 30.23 in 10.0 mi SE 11.5 mph 16.1 mph 0.00 in   Overcast
12:15 PM 62.1 °F 57.0 °F 84% 30.23 in 10.0 mi SSE 10.4 mph - 0.00 in   Overcast
12:56 PM 63.0 °F 57.9 °F 84% 30.22 in 10.0 mi SE 10.4 mph - 0.00 in   Overcast
1:30 PM 64.0 °F 57.0 °F 78% 30.21 in 10.0 mi SE 11.5 mph - N/A   Overcast
1:56 PM 64.9 °F 57.9 °F 78% 30.19 in 10.0 mi SSE 11.5 mph 19.6 mph N/A   Overcast
2:56 PM 64.0 °F 55.9 °F 75% 30.17 in 10.0 mi SE 15.0 mph 23.0 mph N/A   Overcast
3:56 PM 64.0 °F 55.0 °F 73% 30.17 in 10.0 mi SSE 13.8 mph - N/A   Overcast
4:56 PM 63.0 °F 55.9 °F 78% 30.17 in 10.0 mi SE 10.4 mph - N/A   Overcast
5:56 PM 62.1 °F 57.0 °F 84% 30.17 in 8.0 mi SE 11.5 mph - 0.00 in   Light Drizzle
6:26 PM 61.0 °F 57.9 °F 90% 30.17 in 6.0 mi SE 12.7 mph - 0.00 in   Light Drizzle
6:34 PM 61.0 °F 57.9 °F 90% 30.16 in 4.0 mi SE 8.1 mph - 0.00 in   Light Drizzle
6:56 PM 61.0 °F 57.9 °F 90% 30.16 in 10.0 mi SE 9.2 mph - 0.00 in   Light Drizzle
7:56 PM 61.0 °F 57.0 °F 87% 30.16 in 10.0 mi SE 9.2 mph - 0.00 in   Overcast
8:56 PM 61.0 °F 55.9 °F 83% 30.16 in 10.0 mi SE 6.9 mph - N/A   Overcast
9:56 PM 61.0 °F 55.9 °F 83% 30.16 in 10.0 mi SE 9.2 mph - N/A   Overcast
10:56 PM 61.0 °F 55.0 °F 81% 30.15 in 10.0 mi SE 8.1 mph - N/A   Overcast
11:56 PM 62.1 °F 55.0 °F 78% 30.15 in 10.0 mi SSE 9.2 mph - N/A   Overcast